Wind_Speed
37 33 31 29 21 29 26 21 20 19 16 15 15 14 12 12 11 12 12 13 16 17
38 40 36 34 26 26 23 20 19 20 18 18 17 17 14 14 13 12 12 11 14 19
39 40 39 37 36 30 28 28 24 24 24 23 21 20 18 17 16 15 13 11 11 16
39 41 38 39 40 38 32 33 32 30 28 27 26 24 21 19 18 19 17 15 14 14
37 40 40 40 41 42 41 38 33 33 32 30 27 26 26 23 22 21 20 19 16 19
39 41 43 42 41 43 43 41 39 37 37 37 34 31 29 26 25 25 22 20 20 17
43 43 44 42 43 44 43 43 43 43 42 40 37 34 32 29 26 26 27 24 23 20
45 44 44 44 42 43 47 46 43 42 43 42 39 35 34 31 29 26 26 25 25 23
46 46 46 46 43 42 41 44 44 42 41 41 38 35 35 32 31 26 23 21 23 24
46 46 47 47 44 43 40 37 38 39 38 35 35 33 32 31 29 25 24 23 24 27
48 46 45 45 44 42 40 38 36 34 34 32 32 30 28 25 25 24 24 24 27 25
49 48 48 47 42 43 39 37 36 32 32 30 30 27 24 26 24 26 27 29 30 28
53 50 51 47 43 41 33 25 27 29 27 25 23 21 19 20 27 28 28 28 31 29
50 50 49 42 39 30 26 27 26 23 20 19 17 16 18 20 20 21 19 21 20 22
Wind_Direction
214 214 206 207 221 216 223 227 227 231 233 230 228 236 219 216 206 202 207 210 205 201
214 220 215 207 210 216 222 230 227 229 236 238 236 235 231 221 222 211 203 203 210 215
218 221 219 214 211 212 220 229 227 229 235 241 246 238 232 226 215 220 222 227 224 202
222 221 220 217 218 217 218 225 227 229 234 240 243 239 235 229 228 222 224 228 227 224
225 223 222 220 218 221 223 229 231 230 236 243 244 241 238 232 226 225 223 229 231 231
227 226 225 222 221 225 223 225 230 231 237 243 247 245 244 237 229 229 228 235 235 234
228 229 229 229 225 227 228 229 230 234 239 244 249 250 248 242 231 231 229 235 239 242
230 231 231 232 233 229 230 235 237 236 239 243 247 251 249 243 233 228 226 233 236 238
229 231 231 233 234 237 234 234 236 238 242 246 249 251 252 248 236 233 236 239 236 237
226 229 231 232 234 237 238 235 234 238 244 249 254 255 249 245 237 236 237 248 238 237
225 228 229 231 233 235 235 236 235 237 239 253 257 250 244 238 232 235 243 253 242 241
221 226 227 225 229 231 230 233 235 241 248 253 254 249 232 224 225 230 243 245 241 247
220 223 223 221 224 227 233 238 247 243 247 252 252 250 253 238 234 241 250 249 245 245
218 217 219 214 220 228 232 233 237 240 245 244 243 252 235 222 245 250 247 245 249 250
Height
1525 1528 1531 1535 1538 1541 1544 1547 1549 1551 1553 1556 1557 1558 1560 1560 1561 1561 1563 1564 1566 1568
1518 1520 1524 1530 1536 1538 1540 1542 1545 1548 1549 1552 1554 1556 1558 1559 1560 1560 1561 1562 1562 1563
1510 1513 1520 1526 1530 1533 1536 1538 1540 1542 1545 1548 1550 1552 1554 1556 1558 1558 1559 1560 1561 1561
1502 1507 1514 1519 1524 1528 1531 1533 1535 1538 1541 1543 1546 1548 1550 1552 1553 1555 1556 1558 1558 1559
1496 1501 1506 1511 1516 1520 1523 1526 1529 1532 1535 1538 1540 1541 1542 1545 1548 1550 1552 1554 1556 1556
1489 1493 1498 1503 1508 1512 1516 1520 1523 1525 1527 1530 1532 1535 1537 1541 1544 1546 1548 1551 1552 1553
1481 1484 1489 1495 1500 1504 1508 1513 1516 1518 1521 1524 1527 1530 1532 1536 1540 1543 1544 1546 1547 1549
1472 1478 1483 1488 1492 1498 1502 1505 1509 1513 1515 1518 1522 1525 1527 1530 1534 1537 1539 1540 1543 1544
1465 1470 1475 1481 1486 1489 1495 1499 1503 1506 1510 1514 1517 1521 1522 1526 1530 1536 1538 1537 1538 1540
1457 1461 1467 1473 1479 1483 1488 1493 1497 1501 1504 1507 1512 1513 1515 1519 1523 1528 1531 1534 1533 1534
1447 1454 1460 1467 1472 1478 1482 1486 1491 1495 1499 1502 1504 1507 1510 1513 1517 1521 1522 1525 1527 1528
1438 1445 1452 1458 1467 1472 1478 1483 1484 1491 1494 1496 1499 1502 1507 1510 1512 1514 1517 1520 1522 1524
1432 1439 1445 1453 1461 1466 1474 1478 1483 1485 1487 1490 1494 1497 1501 1503 1507 1510 1512 1513 1514 1517
1429 1434 1438 1447 1456 1465 1470 1472 1474 1479 1481 1485 1489 1492 1495 1499 1502 1504 1506 1509 1511 1511